SCO15CD EGPH-EGAA

Flight info

Callsign SCO15CD
Flight time 0h 33m
Altitude 20000
Route GOSAM P600 BLACA DCT BELZU
Aircraft B738/M-SDE2E3FGHIRWXY/LB1

Departure

Time 2026-05-05 19:47
Airport Edinburgh Airport (EGPH)

Arrival

Time 2026-05-05 20:20
Airport Belfast International Airport (EGAA)
Time Latitude Longitude Altitude Speed Heading
2026-05-05 19:20 55.94711 -3.35363 115 ft 0 kts 208°
2026-05-05 19:35 55.94717 -3.35357 116 ft 2 kts 208°
2026-05-05 19:35 55.94731 -3.35343 112 ft 2 kts 208°
2026-05-05 19:35 55.94746 -3.35329 112 ft 2 kts 212°
2026-05-05 19:36 55.94758 -3.35310 113 ft 2 kts 252°
2026-05-05 19:36 55.94759 -3.35290 111 ft 1 kts 300°
2026-05-05 19:36 55.94757 -3.35283 111 ft 0 kts 304°
2026-05-05 19:37 55.94769 -3.35325 113 ft 10 kts 298°
2026-05-05 19:37 55.94807 -3.35450 114 ft 12 kts 298°
2026-05-05 19:38 55.94846 -3.35579 116 ft 12 kts 298°
2026-05-05 19:38 55.94885 -3.35703 113 ft 11 kts 298°
2026-05-05 19:38 55.94923 -3.35823 114 ft 11 kts 305°
2026-05-05 19:38 55.94956 -3.35863 114 ft 0 kts 348°
2026-05-05 19:40 55.94959 -3.35864 114 ft 3 kts 354°
2026-05-05 19:40 55.95018 -3.35831 115 ft 10 kts 12°
2026-05-05 19:40 55.95059 -3.35880 113 ft 0 kts 299°
2026-05-05 19:41 55.95094 -3.36005 114 ft 21 kts 288°
2026-05-05 19:41 55.95137 -3.36247 114 ft 17 kts 276°
2026-05-05 19:41 55.95082 -3.36432 115 ft 16 kts 238°
2026-05-05 19:41 55.95024 -3.36600 114 ft 16 kts 238°
2026-05-05 19:42 55.94970 -3.36767 113 ft 15 kts 239°
2026-05-05 19:42 55.94912 -3.36937 114 ft 20 kts 239°
2026-05-05 19:42 55.94830 -3.37175 112 ft 23 kts 238°
2026-05-05 19:42 55.94750 -3.37414 114 ft 22 kts 239°
2026-05-05 19:43 55.94671 -3.37646 114 ft 22 kts 239°
2026-05-05 19:43 55.94595 -3.37871 114 ft 21 kts 239°
2026-05-05 19:43 55.94522 -3.38085 113 ft 20 kts 238°
2026-05-05 19:43 55.94452 -3.38293 114 ft 19 kts 239°
2026-05-05 19:44 55.94384 -3.38494 114 ft 19 kts 238°
2026-05-05 19:44 55.94321 -3.38677 114 ft 15 kts 238°
2026-05-05 19:44 55.94276 -3.38817 112 ft 11 kts 254°
2026-05-05 19:44 55.94310 -3.38894 114 ft 0 kts 329°
2026-05-05 19:45 55.94314 -3.38898 114 ft 4 kts 329°
2026-05-05 19:45 55.94349 -3.38936 114 ft 7 kts 329°
2026-05-05 19:46 55.94402 -3.38976 113 ft 9 kts
2026-05-05 19:46 55.94441 -3.38896 113 ft 9 kts 59°
2026-05-05 19:46 55.94453 -3.38859 111 ft 0 kts 59°
2026-05-05 19:47 55.94485 -3.38767 112 ft 35 kts 59°
2026-05-05 19:47 55.94753 -3.37978 112 ft 111 kts 59°
2026-05-05 19:47 55.95260 -3.36504 298 ft 155 kts 60°
2026-05-05 19:47 55.95850 -3.34784 990 ft 169 kts 61°
2026-05-05 19:48 55.96599 -3.33304 2230 ft 157 kts 44°
2026-05-05 19:48 55.97471 -3.31937 2822 ft 182 kts 44°
2026-05-05 19:48 55.98484 -3.30304 3116 ft 210 kts 44°
2026-05-05 19:48 55.99692 -3.28571 3425 ft 240 kts 27°
2026-05-05 19:49 56.01365 -3.28169 4230 ft 252 kts 351°
2026-05-05 19:49 56.02438 -3.28971 4907 ft 255 kts 326°
2026-05-05 19:49 56.03685 -3.32520 5809 ft 262 kts 281°
2026-05-05 19:49 56.03423 -3.35748 6374 ft 270 kts 250°
2026-05-05 19:50 56.02739 -3.38845 7356 ft 268 kts 253°
2026-05-05 19:50 56.02141 -3.42016 8240 ft 270 kts 255°
2026-05-05 19:50 56.01594 -3.45241 9144 ft 272 kts 257°
2026-05-05 19:50 56.01097 -3.48520 10043 ft 274 kts 258°
2026-05-05 19:51 56.00617 -3.51868 10613 ft 288 kts 258°
2026-05-05 19:51 56.00103 -3.55497 10810 ft 314 kts 258°
2026-05-05 19:51 55.99552 -3.59375 11278 ft 327 kts 258°
2026-05-05 19:51 55.98984 -3.63346 12027 ft 332 kts 258°
2026-05-05 19:52 55.98410 -3.67345 12904 ft 333 kts 257°
2026-05-05 19:52 55.97832 -3.71358 13786 ft 336 kts 257°
2026-05-05 19:52 55.97245 -3.75428 14571 ft 340 kts 257°
2026-05-05 19:52 55.96653 -3.79526 15350 ft 344 kts 257°
2026-05-05 19:53 55.96061 -3.83623 16133 ft 347 kts 257°
2026-05-05 19:53 55.95454 -3.87819 16922 ft 351 kts 257°
2026-05-05 19:53 55.94836 -3.92060 17695 ft 355 kts 257°
2026-05-05 19:53 55.94207 -3.96350 18452 ft 359 kts 255°
2026-05-05 19:54 55.93062 -4.00297 19221 ft 364 kts 231°
2026-05-05 19:54 55.91111 -4.03188 19831 ft 368 kts 217°
2026-05-05 19:54 55.88978 -4.05616 20102 ft 364 kts 216°
2026-05-05 19:54 55.86831 -4.08191 20105 ft 381 kts 218°
2026-05-05 19:55 55.84683 -4.11113 20118 ft 396 kts 221°
2026-05-05 19:55 55.82533 -4.14346 20122 ft 410 kts 223°
2026-05-05 19:55 55.80366 -4.17747 20116 ft 423 kts 224°
2026-05-05 19:55 55.78128 -4.21256 20111 ft 434 kts 222°
2026-05-05 19:56 55.75674 -4.24417 20104 ft 436 kts 216°
2026-05-05 19:56 55.73151 -4.27339 20093 ft 432 kts 216°
2026-05-05 19:56 55.70647 -4.30263 20093 ft 430 kts 216°
2026-05-05 19:56 55.68177 -4.33241 20096 ft 429 kts 217°
2026-05-05 19:57 55.65727 -4.36262 20080 ft 429 kts 217°
2026-05-05 19:57 55.64106 -4.38274 20081 ft 430 kts 217°
2026-05-05 19:57 55.60825 -4.42347 20076 ft 431 kts 217°
2026-05-05 19:57 55.58362 -4.45393 20076 ft 432 kts 217°
2026-05-05 19:58 55.55894 -4.48435 20075 ft 433 kts 217°
2026-05-05 19:58 55.53425 -4.51467 20074 ft 433 kts 217°
2026-05-05 19:58 55.50946 -4.54503 20073 ft 433 kts 217°
2026-05-05 19:58 55.48465 -4.57535 20076 ft 434 kts 217°
2026-05-05 19:59 55.45991 -4.60555 20071 ft 434 kts 217°
2026-05-05 19:59 55.43510 -4.63579 20072 ft 433 kts 217°
2026-05-05 19:59 55.41029 -4.66598 20073 ft 433 kts 217°
2026-05-05 19:59 55.38544 -4.69620 20072 ft 433 kts 217°
2026-05-05 20:00 55.36066 -4.72629 20076 ft 433 kts 217°
2026-05-05 20:00 55.33596 -4.75620 20073 ft 433 kts 217°
2026-05-05 20:00 55.31102 -4.78587 20075 ft 433 kts 214°
2026-05-05 20:00 55.28448 -4.81131 20076 ft 436 kts 209°
2026-05-05 20:01 55.25720 -4.83441 20072 ft 436 kts 208°
2026-05-05 20:01 55.22993 -4.85754 20062 ft 436 kts 208°
2026-05-05 20:01 55.20304 -4.88083 20047 ft 421 kts 209°
2026-05-05 20:01 55.17781 -4.90293 20045 ft 401 kts 209°
2026-05-05 20:02 55.15320 -4.92441 20055 ft 392 kts 209°
2026-05-05 20:02 55.12881 -4.94557 20057 ft 391 kts 209°
2026-05-05 20:02 55.10441 -4.96670 20028 ft 392 kts 209°
2026-05-05 20:02 55.07984 -4.98808 19594 ft 391 kts 210°
2026-05-05 20:03 55.05559 -5.00921 19084 ft 388 kts 210°
2026-05-05 20:03 55.03160 -5.03011 18548 ft 384 kts 210°
2026-05-05 20:03 55.00777 -5.05086 17955 ft 381 kts 210°
2026-05-05 20:03 54.98425 -5.07131 17380 ft 377 kts 210°
2026-05-05 20:04 54.96087 -5.09161 16838 ft 373 kts 210°
2026-05-05 20:04 54.93769 -5.11169 16288 ft 370 kts 210°
2026-05-05 20:04 54.91474 -5.13153 15765 ft 366 kts 210°
2026-05-05 20:04 54.89392 -5.15577 15229 ft 358 kts 226°
2026-05-05 20:05 54.87829 -5.18859 14700 ft 351 kts 241°
2026-05-05 20:05 54.86821 -5.22677 14183 ft 346 kts 252°
2026-05-05 20:05 54.86022 -5.26601 13639 ft 344 kts 253°
2026-05-05 20:05 54.85153 -5.30452 13059 ft 344 kts 242°
2026-05-05 20:06 54.83510 -5.33449 12580 ft 347 kts 215°
2026-05-05 20:06 54.81250 -5.34868 12142 ft 351 kts 189°
2026-05-05 20:06 54.78867 -5.35477 11824 ft 339 kts 202°
2026-05-05 20:06 54.76938 -5.37602 11575 ft 327 kts 230°
2026-05-05 20:07 54.75793 -5.40983 11280 ft 332 kts 252°
2026-05-05 20:07 54.75136 -5.44843 10832 ft 334 kts 257°
2026-05-05 20:07 54.74588 -5.48689 10416 ft 332 kts 258°
2026-05-05 20:07 54.74056 -5.52554 9859 ft 326 kts 258°
2026-05-05 20:08 54.73669 -5.56382 9113 ft 319 kts 266°
2026-05-05 20:08 54.73520 -5.60060 8981 ft 296 kts 268°
2026-05-05 20:08 54.73411 -5.63504 8785 ft 278 kts 268°
2026-05-05 20:08 54.73310 -5.66752 8588 ft 264 kts 268°
2026-05-05 20:09 54.73214 -5.69903 8259 ft 259 kts 269°
2026-05-05 20:09 54.73122 -5.73000 8157 ft 261 kts 268°
2026-05-05 20:09 54.73032 -5.76161 8106 ft 265 kts 268°
2026-05-05 20:09 54.72940 -5.79357 8045 ft 266 kts 269°
2026-05-05 20:10 54.72849 -5.82575 7773 ft 269 kts 268°
2026-05-05 20:10 54.72759 -5.85807 7415 ft 269 kts 268°
2026-05-05 20:10 54.72673 -5.89047 7132 ft 269 kts 268°
2026-05-05 20:10 54.72590 -5.92304 7099 ft 274 kts 268°
2026-05-05 20:11 54.72507 -5.95601 7076 ft 272 kts 268°
2026-05-05 20:11 54.72423 -5.98853 7064 ft 269 kts 268°
2026-05-05 20:11 54.72338 -6.02067 7060 ft 267 kts 268°
2026-05-05 20:11 54.72253 -6.05273 6937 ft 266 kts 268°
2026-05-05 20:12 54.72168 -6.08472 6578 ft 267 kts 268°
2026-05-05 20:12 54.72084 -6.11706 6179 ft 270 kts 268°
2026-05-05 20:12 54.71999 -6.14930 5880 ft 265 kts 268°
2026-05-05 20:12 54.71913 -6.18100 5322 ft 265 kts 268°
2026-05-05 20:13 54.71824 -6.21289 4826 ft 264 kts 268°
2026-05-05 20:13 54.71726 -6.24442 4359 ft 261 kts 266°
2026-05-05 20:13 54.71281 -6.27478 4060 ft 259 kts 252°
2026-05-05 20:13 54.70653 -6.30378 4010 ft 258 kts 251°
2026-05-05 20:14 54.70028 -6.33294 4000 ft 259 kts 252°
2026-05-05 20:14 54.69425 -6.36267 4004 ft 263 kts 253°
2026-05-05 20:14 54.68849 -6.39209 3975 ft 251 kts 254°
2026-05-05 20:14 54.68316 -6.41961 3963 ft 231 kts 254°
2026-05-05 20:15 54.67821 -6.44535 3810 ft 227 kts 254°
2026-05-05 20:15 54.67487 -6.46281 3657 ft 234 kts 254°
2026-05-05 20:15 54.66790 -6.48808 3367 ft 235 kts 230°
2026-05-05 20:15 54.65451 -6.50310 3095 ft 230 kts 195°
2026-05-05 20:16 54.63899 -6.50319 2828 ft 220 kts 161°
2026-05-05 20:16 54.62632 -6.49084 2604 ft 200 kts 134°
2026-05-05 20:16 54.61716 -6.47322 2536 ft 197 kts 125°
2026-05-05 20:16 54.60868 -6.45489 2493 ft 195 kts 125°
2026-05-05 20:17 54.60026 -6.43665 2495 ft 195 kts 125°
2026-05-05 20:17 54.59180 -6.41836 2494 ft 194 kts 123°
2026-05-05 20:17 54.58751 -6.39741 2482 ft 184 kts 79°
2026-05-05 20:17 54.59227 -6.37722 2249 ft 186 kts 50°
2026-05-05 20:18 54.59999 -6.36023 2077 ft 173 kts 48°
2026-05-05 20:18 54.60703 -6.34450 1990 ft 159 kts 47°
2026-05-05 20:18 54.61389 -6.32977 1698 ft 158 kts 46°
2026-05-05 20:18 54.62085 -6.31522 1385 ft 156 kts 45°
2026-05-05 20:19 54.62772 -6.30152 1163 ft 143 kts 44°
2026-05-05 20:19 54.63412 -6.28913 994 ft 141 kts 44°
2026-05-05 20:19 54.64030 -6.27637 855 ft 136 kts 52°
2026-05-05 20:19 54.64498 -6.26184 647 ft 141 kts 60°
2026-05-05 20:20 54.64916 -6.24651 437 ft 142 kts 61°
2026-05-05 20:20 54.65337 -6.23114 275 ft 139 kts 62°
2026-05-05 20:20 54.65677 -6.21850 271 ft 86 kts 65°
2026-05-05 20:20 54.65831 -6.21344 271 ft 25 kts 26°
2026-05-05 20:21 54.65909 -6.21359 271 ft 0 kts 335°
2026-05-05 20:21 54.65912 -6.21361 276 ft 2 kts 335°
2026-05-05 20:21 54.65928 -6.21374 274 ft 0 kts 335°
2026-05-05 20:22 54.65947 -6.21390 271 ft 10 kts 330°
2026-05-05 20:22 54.65959 -6.21518 271 ft 12 kts 279°
2026-05-05 20:22 54.66023 -6.21602 271 ft 12 kts 335°
2026-05-05 20:22 54.66078 -6.21646 273 ft 4 kts 335°
2026-05-05 20:23 54.66079 -6.21647 273 ft 0 kts 335°